GSAT0212 (PRN E03)

Last updated on Jan. 23, 2021, 7:31 a.m. UTC

1 41860U 16069B   21022.09169150  .00000028  00000-0  00000-0 0  9999
2 41860  54.6889 155.7701 0001961 350.9622   8.9948  1.70473709 26038
UTC
Height (km)
Latitude
Longitude
Inclination
Orbital Period
UTC large
Height (km)
Speed (km/s)
/
Latitude / Longitude
Inclination (degrees)
Orbital Period (minutes)
Azimuth
Elevation
Range (km)
Doppler Factor
iOS Compass Heading
iOS Angle

Next 30 passes for location: Hong Kong

Rise time Rise Azimuth (degrees) Set time Set Azimuth (degrees) Duration Max altitude (degrees)

No matching passes for this satellites